Location: St. Louis
(38.6270°N, 90.1994°W)
Time: 04:18:54
(UTC-05:00)

deb Delta - Pass Details

Date: 09 July 2022
Orbit: 1084 x 1202 km, 99.8° (Epoch: 15 August)

Event Time Altitude Azimuth Distance (km) Brightness Sun altitude
Exits shadow 03:21:45 23° 256° (WSW) 2,279 ? -21.2°
Maximum altitude 03:22:34 24° 266° (W) 2,255 ? -21.2°
Drops below altitude 10° 03:28:08 10° 318° (NW) 3,118 ? -20.5°
Sets 03:31:23 0° 332° (NNW) 4,071 ? -20.2°
